GFSNIL_con_sbcape_000.txt.gz
CAPE
1055 135 0 0 0 0 0 0 0 0 0 0 0 0 0 0 0 0 10 17 0 0
399 0 0 0 0 0 0 0 0 0 0 0 0 0 0 0 0 0 0 0 0 0
59 0 0 0 0 0 0 0 0 0 0 0 0 0 0 0 0 0 0 0 0 0
3 0 0 0 0 0 0 0 0 0 0 0 0 0 0 0 0 0 0 13 22 34
0 0 0 0 0 0 0 0 0 0 0 0 0 0 0 0 0 0 11 46 35 66
0 1 1 0 0 0 0 0 0 0 0 0 0 0 0 0 0 0 3 31 44 53
6 11 23 0 0 0 0 0 0 0 0 0 0 0 0 0 0 0 11 41 48 24
68 46 3 9 0 0 0 0 0 0 0 0 0 0 0 0 0 22 68 80 51 20
127 39 0 22 141 0 0 0 0 0 0 0 0 0 0 18 25 89 88 78 23 0
8 10 0 0 2 3 7 0 0 0 0 2 21 0 4 4 82 34 7 4 0 0
20 0 0 0 0 0 0 0 0 0 11 13 26 10 4 6 16 11 0 0 0 0
87 85 99 2 0 0 0 0 12 47 77 64 93 68 28 1 7 8 0 0 0 0
104 0 0 18 11 0 0 4 27 43 15 17 25 22 0 0 8 5 0 0 0 0
326 163 29 0 0 0 17 28 55 33 0 18 66 63 0 0 0 0 0 0 0 0

GFSNIL_con_sbcape_003.txt.gz
CAPE
3084 2798 2837 2621 1760 1221 1134 833 294 308 373 550 177 17 60 28 9 135 157 400 278 120
3157 3051 2840 2452 1512 1083 1078 426 296 297 378 244 0 14 95 0 16 117 251 241 428 257
2801 2956 2901 2564 1335 621 670 322 323 311 200 132 32 25 165 15 3 49 11 72 398 500
2800 2720 2769 1908 1588 334 385 438 338 337 189 169 147 139 204 251 37 5 100 372 449 509
2523 1514 1477 1801 164 304 225 297 354 347 302 295 256 281 286 197 0 80 142 178 402 397
1957 1542 1933 75 141 60 166 84 176 288 393 350 330 449 521 354 112 242 299 302 391 424
1612 1338 401 209 21 0 25 82 85 258 562 384 444 414 294 120 240 378 329 434 488 576
1403 950 345 85 9 0 0 11 0 34 338 368 294 187 233 308 444 691 687 652 858 708
1190 551 313 270 13 0 0 0 101 77 186 325 182 56 13 161 581 811 961 936 728 771
884 486 601 358 214 25 0 0 12 198 160 546 474 148 19 8 465 756 880 942 799 617
818 672 470 600 354 167 0 20 329 381 535 491 626 183 6 0 402 496 734 609 534 417
708 738 627 550 512 260 163 204 294 144 370 457 526 14 23 67 238 282 213 542 383 121
735 628 550 671 631 355 291 111 79 229 456 230 513 23 69 106 59 160 115 339 69 0
895 844 837 854 518 301 300 211 478 552 693 419 499 311 1 0 110 196 215 223 119 0

GFSNIL_con_sbcape_006.txt.gz
CAPE
3890 3180 2890 2737 1625 965 608 365 565 1715 732 359 284 263 32 0 8 26 33 35 117 39
4051 3564 2995 2780 2548 1487 1270 361 1054 1165 699 196 326 82 33 0 10 8 12 12 38 119
3240 3448 3241 3103 3211 2468 1799 1473 945 848 365 254 190 61 96 9 7 6 0 0 4 65
2923 3007 3396 3342 3438 3033 2585 1627 1121 881 401 302 225 148 188 129 0 1 2 0 62 211
2894 2988 3197 3882 3274 2691 2794 1400 1129 751 443 672 218 209 303 189 7 11 0 32 165 324
2825 2997 3226 3346 2877 2917 1749 904 468 433 674 713 561 292 345 386 321 116 32 108 245 311
2999 2822 2979 2890 1707 1067 815 401 117 286 332 173 447 640 622 349 427 205 70 220 324 492
3146 3073 2775 2415 1479 665 446 382 0 93 16 135 490 198 570 374 231 248 302 371 478 622
3274 3069 2810 2241 1201 801 517 186 51 0 0 6 147 0 0 122 309 385 551 710 892 1004
3183 2849 2361 1728 1361 787 528 156 98 104 30 79 399 28 0 13 172 389 667 978 987 794
2817 2548 2163 1985 1343 961 339 262 399 479 304 269 409 267 0 0 420 835 1084 966 770 631
2413 2201 1694 1541 1475 1393 775 562 724 749 643 608 716 0 0 0 585 852 992 703 545 430
2247 2207 1897 1691 1709 1467 1184 866 646 755 734 596 1297 0 0 0 670 1016 573 276 437 0
2147 2211 2352 1967 1726 1517 1079 987 1020 838 863 1043 469 768 0 0 591 299 376 393 975 385

GFSNIL_con_sbcape_009.txt.gz
CAPE
4634 2667 2278 2864 2057 1178 831 919 2825 1735 1309 810 342 410 335 51 13 191 46 12 434 11
4635 4468 2722 3297 3714 1995 2157 904 880 1505 1203 898 231 401 205 34 337 63 73 118 507 138
4383 4664 4472 4732 4276 3271 2594 2445 2066 1888 1389 817 759 878 538 444 377 215 41 4 317 512
3896 4054 4551 4433 4247 4223 3343 3271 2343 2432 1923 1007 813 759 941 500 174 413 621 521 173 380
4308 4219 4103 4569 4569 4281 3780 3527 2689 2351 1862 1081 588 202 871 548 365 128 175 209 644 337
3920 4309 4229 4576 4450 4455 4345 3692 2478 2362 2035 1102 1005 1051 1098 1050 579 324 392 338 753 572
4082 4124 4084 4527 4473 4552 4152 3932 2687 2284 1722 1313 1026 1019 939 978 936 1151 962 861 824 913
4381 4294 4316 4285 4631 4406 4157 3669 2501 2123 1427 1209 599 389 1089 668 490 933 842 649 566 891
4720 4588 4581 4622 4695 4222 3631 3065 2265 1224 721 400 143 0 32 486 192 1133 1130 920 1275 1351
4993 4914 4916 4580 4139 3554 2716 2492 1810 955 150 151 433 0 10 0 273 738 1117 1487 1178 1086
4955 4924 4791 4212 3573 2786 2433 2257 1519 751 516 523 727 21 1 0 294 791 907 1405 1710 1808
4258 4152 3910 3305 3020 2480 2170 1978 1047 604 524 944 1111 32 0 1 642 831 1511 1645 1642 1311
4083 3732 3242 3071 2962 2519 2472 1851 1196 818 1076 1133 1316 75 1 28 437 778 1261 1428 1770 259
3270 3388 3170 2751 2881 2527 2297 1782 1411 1053 1435 1622 1508 1027 0 0 565 877 959 1224 989 768

GFSNIL_con_sbcape_012.txt.gz
CAPE
3529 3528 3173 3250 2976 2743 2081 1701 1972 1854 1707 1843 1138 1161 1308 1068 450 748 636 234 622 509
3861 3674 3372 3066 2999 3253 2385 2829 1762 1720 2108 1474 1266 1279 1496 440 486 820 1036 924 670 457
4133 3678 3188 3223 3425 2469 2968 2328 2327 2116 1883 1536 1180 864 1108 395 910 572 635 501 686 598
4025 3984 3467 3889 3287 3529 2771 2495 2463 2168 1822 1597 1127 1119 914 601 388 569 541 477 604 507
4049 4016 3976 3434 3886 3328 3862 3017 2365 2265 2000 1646 752 1123 609 371 213 728 655 627 628 477
3813 3970 3893 4037 3448 4161 3578 3099 2320 2370 2038 1742 772 983 651 478 570 603 241 444 564 404
3651 3748 3658 3868 4068 3745 3846 3278 3063 2362 2099 1875 928 757 552 737 820 723 437 831 736 676
3815 3728 3800 3767 4122 4015 3951 3870 3494 2930 2296 2041 1031 710 890 897 846 897 649 1245 806 839
3585 3951 3777 3976 3921 4231 4165 4220 3741 3141 2232 1909 1016 262 393 732 832 995 686 1001 1194 932
3542 3947 4053 3976 4032 4279 4297 4194 3698 3328 2199 1530 1037 0 0 218 695 410 644 1384 1191 1067
4112 4296 4220 4221 4249 4432 4360 3985 3478 2685 1460 903 542 125 23 2 82 201 702 980 1305 1078
5033 4793 4762 4742 4681 4495 3799 2932 2400 1604 674 495 730 36 6 0 55 90 597 932 844 1033
5021 4950 4888 4790 4364 3053 2416 2225 1913 994 723 587 818 765 61 0 315 304 766 1099 981 482
4917 4957 4833 4538 3296 2407 2477 2622 1701 1111 894 923 725 1265 0 0 658 901 1025 925 888 1029

GFSNIL_con_sbcape_015.txt.gz
CAPE
2186 1432 1226 1391 1851 1561 1527 1286 1120 790 286 122 26 514 264 194 68 79 19 15 0 0
1896 2205 2042 1893 1792 1572 1018 1009 1094 871 443 196 100 69 312 214 28 114 54 0 0 0
2337 2010 2037 2189 1840 2052 1284 1410 921 1089 617 709 187 162 402 57 154 26 108 59 30 0
2742 2530 2087 2352 1909 1561 1740 1086 939 1015 1053 598 342 358 385 43 35 148 2 16 0 77
2989 2970 2565 2238 2049 2140 1442 1399 1360 1058 1088 754 455 252 340 69 49 22 125 8 0 0
2870 3106 3002 2468 2366 2269 2262 1753 1425 1456 1066 912 686 370 377 122 5 106 29 91 20 15
2971 2951 3012 2945 2303 2508 2602 2378 1254 1243 1195 951 711 326 351 140 39 97 129 65 134 75
3022 3033 3093 3000 3055 2591 2596 2502 2074 1344 1305 1115 622 319 284 264 195 228 256 104 229 96
2887 2946 3011 3033 2972 3162 2691 2813 2187 2011 1531 1276 1117 532 375 305 356 424 344 205 505 184
2656 2895 2927 2989 2937 3234 3267 3124 3056 2616 1971 1376 1320 411 147 338 358 335 341 379 509 559
2749 2757 3093 3044 3181 3103 3388 3291 3294 2912 2064 1514 687 104 24 4 146 221 184 379 518 429
2485 2852 3073 3246 3233 3237 3414 3351 2975 2064 1139 549 328 88 1 0 0 7 6 142 341 366
2353 2890 3326 3378 3301 3283 3084 2270 1874 954 536 302 206 40 15 0 3 0 0 0 229 330
3391 3808 3674 3535 2807 2066 1850 1788 1255 748 397 205 246 306 1 0 0 42 67 88 162 104

GFSNIL_con_sbcape_018.txt.gz
CAPE
1046 929 918 591 828 1218 1262 1223 1065 687 150 0 0 0 0 0 0 0 0 0 0 0
1387 1122 1100 717 1200 1064 1204 1048 913 684 140 12 0 83 66 21 0 21 0 0 0 0
1492 1604 1288 817 1120 1149 1006 1020 815 553 153 53 4 49 67 55 1 0 4 0 0 0
1404 1279 1647 1586 1479 1306 968 702 791 567 251 115 51 0 130 6 5 0 0 9 0 0
1970 1719 1509 1577 1776 1448 1277 653 767 663 408 277 164 69 41 31 21 20 0 0 0 0
2271 2157 1972 1672 1595 1599 1418 942 707 649 739 393 328 174 123 63 11 0 5 0 0 0
2518 2386 2331 2145 1860 1730 1718 1119 948 751 771 737 391 203 202 147 8 0 1 0 0 0
2531 2607 2560 2468 2183 1880 1978 1768 1087 1000 898 695 625 412 231 185 72 11 3 0 0 0
2691 2599 2585 2695 2621 2107 2001 2077 1395 1012 1000 796 749 587 237 276 174 91 32 16 0 12
2831 2751 2675 2637 2647 2682 2217 2034 1843 1183 1068 997 986 678 119 146 168 146 139 10 14 82
2842 2787 2731 2749 2748 2736 2825 2354 2342 1918 1421 1324 1152 715 5 108 272 241 233 194 120 195
2775 2648 2725 2655 2747 2771 2941 2897 2755 2740 2071 1606 1395 390 0 66 144 174 185 101 224 303
2634 2541 2633 2746 2768 2834 2929 2987 2980 2411 1821 1619 294 0 3 2 0 17 15 0 0 72
2480 2516 2528 2825 2847 2852 2965 2584 2011 1080 320 421 395 19 0 0 0 0 0 0 0 1

GFSNIL_con_sbcape_021.txt.gz
CAPE
587 400 350 119 220 525 1073 1114 1087 817 616 60 0 0 0 0 0 0 0 0 0 0
658 555 497 243 233 497 837 1012 851 905 608 59 0 0 0 0 0 0 0 0 0 0
856 753 596 446 522 543 824 907 679 876 479 97 0 0 0 0 0 0 0 0 0 0
1020 940 739 642 606 808 819 737 718 747 485 129 11 0 0 3 0 0 0 0 0 0
1123 1177 1111 943 804 808 897 709 751 620 411 188 54 0 40 20 15 0 0 0 0 0
1105 1077 1218 1331 1225 1104 1062 768 698 636 559 261 96 28 0 15 6 0 0 0 0 0
1412 1319 1146 1203 1308 1363 1267 860 727 687 646 456 269 129 61 4 0 0 0 0 0 0
1634 1642 1574 1438 1286 1214 1283 1301 780 615 622 588 390 318 143 69 25 21 11 0 0 0
1858 1892 1877 1838 1706 1472 1327 1383 974 777 653 611 695 461 216 210 163 92 35 5 9 0
1847 2048 2108 2043 1995 1803 1561 1521 1104 1066 939 713 729 574 212 116 238 94 24 63 63 1
2082 2055 2168 2208 2232 2141 1791 1727 1659 1217 1016 1087 1028 498 69 97 328 171 118 107 40 2
2423 2332 2244 2256 2293 2340 2220 1787 1856 1572 1341 1336 1354 704 116 1 354 254 235 193 145 22
2538 2516 2434 2373 2339 2363 2458 2394 1990 1994 1877 1613 1508 554 20 62 341 255 284 154 88 114
2617 2582 2498 2428 2392 2511 2525 2624 2475 2544 2236 1402 671 3 0 163 217 302 221 56 0 0

GFSNIL_con_sbcape_024.txt.gz
CAPE
283 248 179 137 322 554 738 922 956 731 684 357 50 11 0 0 0 0 0 0 0 0
325 346 278 198 220 454 622 910 925 888 821 432 54 27 0 0 0 0 0 0 0 0
495 483 418 249 159 239 376 815 936 980 914 433 76 14 0 0 0 0 0 0 0 0
712 637 508 359 346 298 449 630 856 1024 903 547 139 52 5 5 0 0 0 0 0 0
895 792 666 572 571 545 534 598 773 886 906 670 210 110 77 40 31 0 0 0 0 0
986 901 844 732 767 597 743 751 801 833 867 658 369 126 135 124 81 60 31 1 0 0
1059 1016 1026 962 940 776 824 840 926 920 915 708 514 280 152 148 148 124 122 50 0 3
1055 1089 1138 1216 1174 1107 1023 1019 906 932 936 826 634 469 328 200 162 160 148 87 35 4
1204 1183 1151 1135 1281 1309 1306 1275 1039 931 978 906 848 599 225 275 264 193 159 75 66 95
1399 1442 1418 1366 1244 1225 1224 1345 1155 1101 1005 1004 1055 509 196 155 457 407 300 188 92 42
1603 1666 1663 1675 1573 1458 1363 1296 1329 1200 1048 1058 984 503 114 100 580 539 385 283 181 212
1739 1808 1838 1881 1877 1839 1723 1546 1516 1412 1214 1169 1205 345 30 49 544 500 425 325 249 244
1847 1829 1926 2035 2090 2060 2004 1841 1730 1604 1368 1230 1436 65 22 57 662 661 514 420 340 72
2067 2052 1964 2090 2276 2324 2350 2164 1870 1825 1605 1611 1380 803 4 0 767 904 582 564 361 204

GFSNIL_con_sbcape_027.txt.gz
CAPE
2170 1763 1861 1921 1440 1398 1357 1481 2016 2238 2257 2198 2063 1778 1395 1197 829 416 453 421 216 193
1956 1950 1825 2033 2140 1468 2137 1486 1925 2290 2386 2372 2083 1796 1374 938 725 364 422 365 314 152
1736 1863 1908 2007 2010 2020 2149 2156 1951 2323 2423 2396 2146 1848 1574 1237 783 535 341 220 322 275
1727 1754 1900 1921 2001 2089 2255 2320 2319 2321 2303 2305 2183 1860 1684 1540 1022 712 688 340 360 367
1912 1872 1832 1903 1973 2081 2215 2194 2522 2465 2357 2231 2190 2003 1736 1659 1199 949 851 639 434 387
2031 1928 1910 1941 2036 2141 2196 2253 2047 2418 2577 2267 2091 2076 1825 1814 1641 1154 1076 829 602 512
2105 2066 2012 2052 2140 2157 2279 2267 2364 2514 2665 2430 2082 2043 1831 1792 1822 1538 1269 1032 773 636
2239 2292 2302 2222 2225 2262 2374 2269 2396 2489 2587 2460 2049 1777 1922 1827 1838 1725 1523 1324 1016 780
2390 2452 2398 2374 2354 2386 2385 2354 2488 2532 2589 2592 2054 1416 1000 1566 1905 1787 1989 1824 1427 1064
2299 2461 2474 2435 2483 2427 2474 2417 2484 2466 2545 2610 2617 820 277 383 2062 1881 2138 2043 1877 1378
2112 2367 2458 2548 2539 2594 2571 2560 2567 2531 2539 2594 2555 440 72 124 1862 2260 2243 2076 1907 1655
2182 2413 2536 2513 2543 2551 2623 2711 2733 2683 2713 2641 2711 261 17 52 1571 2205 2247 2136 1875 1554
2554 2591 2656 2715 2746 2690 2633 2676 2645 2802 2802 2271 2777 222 4 63 1926 2186 1967 2069 1804 586
2852 2908 2785 2529 2857 3106 2989 2901 2893 2855 2831 2783 2311 2138 1 0 2086 2172 2000 1910 1301 1479

GFSNIL_con_sbcape_030.txt.gz
CAPE
3809 2356 2419 2813 1913 1764 1455 1621 1759 2305 2509 2660 2674 2881 2769 2649 2256 1739 1551 876 494 58
3667 3487 2300 3333 3196 2102 2851 1737 1832 1992 2521 2496 2683 2794 2892 2525 2378 1488 1526 851 830 307
3316 3751 3570 3724 3772 3336 2836 2787 2282 2181 2333 2466 2710 3006 3067 2545 2394 2051 1370 771 540 754
2857 3023 3321 3482 3680 3756 3082 3571 3013 3072 2550 2399 2801 3062 3194 3077 2413 2358 1929 1362 729 873
3443 3308 3041 3425 3498 3710 3723 3456 3790 3340 3251 2792 2659 2986 3010 3008 2399 2489 2232 1981 1515 889
3006 2878 3407 3640 3522 3691 3779 3844 2722 3498 3946 3357 3026 3288 3016 2919 2978 2625 2557 2289 2047 1490
3397 3367 3377 3631 3635 3695 3824 3900 3854 3700 4175 3794 3190 2984 2699 2720 2940 2997 2637 2590 2331 1922
3466 3647 3655 3701 3699 3705 3909 3798 3987 3954 4050 4097 3123 2551 3566 3408 3076 3428 2937 2739 2589 2282
3641 3886 3808 3817 3804 3933 3892 3910 3974 3903 4053 4080 3067 1949 1501 2615 3219 3733 3771 3240 2791 2536
3754 3895 3949 3989 4034 3969 3915 3973 4032 3987 4011 4151 4043 1635 721 1197 2947 3607 3635 3449 3220 2739
3732 3928 4155 4188 4113 4086 4041 3974 4092 4037 4095 4145 4075 2071 270 474 2767 3683 3765 3584 3556 3885
3670 3410 3551 4120 4098 4067 3845 3665 3693 3554 4120 4375 4226 1590 64 332 2572 2936 3985 3671 3512 3594
3786 3781 3705 4092 4230 4088 3938 3556 3107 3511 3910 3417 4265 2082 1 230 2261 2849 2715 3804 3971 1993
3875 4040 4038 4341 4302 4240 4067 3624 4045 3715 3696 4075 3877 3710 0 0 2631 2757 2788 2551 2831 2827

GFSNIL_con_sbcape_033.txt.gz
CAPE
4292 2773 2367 2769 1536 1275 1167 1141 2760 3858 3465 3433 3530 3310 4009 3024 2711 2842 1998 1412 1375 187
4188 4034 3007 3303 3564 2521 2690 1331 2928 3542 3601 3579 3578 3862 4082 2681 3537 3026 2374 2098 1701 704
4210 4301 4018 4118 4237 3249 3415 3617 3627 3149 3271 3471 3765 3927 4317 3227 3633 3546 1986 1008 2194 1899
4000 4060 4269 3952 4196 4174 4186 4402 3761 4087 3664 3708 3792 3985 4382 3978 3703 3624 3309 2489 2464 2153
4021 4010 4049 4225 4028 4308 4407 4201 4405 4284 4201 3972 3808 3980 4255 3998 2588 3707 3201 2626 2695 1960
3963 4052 3973 4144 4210 4172 4353 4402 4196 4284 4471 4324 3948 4019 4410 4289 3990 3784 3670 3464 3331 2717
4052 3975 4042 4122 4333 4276 4383 4392 4329 4275 4403 4410 4297 4028 4109 4185 4195 3988 3799 3715 3664 3426
3998 4198 4253 4212 4289 4333 4384 4357 4407 4369 4378 4566 4398 3585 4064 3864 3998 4138 4172 3966 3914 3728
4127 4351 4424 4436 4380 4538 4434 4476 4467 4464 4380 4376 4091 2786 2136 3148 3961 4130 4318 4211 4130 3848
4188 4393 4522 4572 4605 4527 4524 4534 4520 4471 4529 4479 4476 2809 1239 1332 3789 4117 4033 4326 4294 3920
4125 4356 4573 4683 4633 4650 4632 4592 4594 4599 4656 4632 4514 3308 758 597 2993 3735 3929 4072 4258 4310
4196 4345 4526 4574 4610 4644 4610 4605 4555 4610 4724 4717 4575 2954 1369 194 2671 3202 3552 3735 4154 4213
4444 4475 4533 4624 4762 4739 4690 4567 4299 4481 4632 4293 4683 3743 995 358 2907 3106 3276 3593 4079 2885
4465 4647 4572 4655 4783 4828 4759 4430 4637 4525 4569 4636 4349 4515 695 8 3310 3152 3156 3255 3414 3749

GFSNIL_con_sbcape_036.txt.gz
CAPE
3268 2685 1733 3106 1533 1198 1643 1714 2952 2781 3180 3075 2954 3206 3919 3747 3302 3148 2792 2949 1914 1322
2441 3351 2558 2353 2794 2568 1997 2227 3502 2905 3130 2856 3265 3519 3810 2997 3453 3547 2871 2497 2505 1738
2841 3051 3165 2680 2955 2248 2984 2420 3742 3135 3026 3194 3068 3677 3509 3338 3479 3261 2893 2218 1978 1807
3330 2828 2931 3051 3115 3763 2763 4141 2962 3801 3214 3270 3295 3313 3603 3117 3012 3577 3044 2101 2192 1728
3238 3512 3341 2906 3175 3483 4098 3182 4257 3687 3381 3411 3162 3294 3285 3316 2545 3323 3051 2514 1982 2011
3204 3240 3475 3540 3052 3281 3422 3838 3286 3993 3906 3245 3180 3159 3273 3259 3226 2335 3197 3009 2522 2147
3365 3370 3410 3546 3685 3265 3292 3454 3668 3533 3472 3818 3317 3249 3170 3286 3559 3216 2899 3257 3000 2712
3372 3509 3516 3619 3684 3838 3592 3421 3551 3630 3611 3506 3697 3348 3228 3249 3515 3493 3051 2970 3348 3043
3459 3485 3835 3680 3775 3856 3946 3837 3782 3820 3703 3687 3585 3298 2789 2957 3320 3556 3367 3272 3215 3204
3404 3565 3737 3989 3889 3846 4036 4051 4029 4011 3966 3710 3695 3135 2018 1778 3129 3227 3283 3241 3261 3317
3862 3686 3922 4064 4098 4124 4050 4163 4119 4174 4101 4021 3862 3240 1315 1017 2542 3087 3145 3203 3198 3254
4044 4027 4027 4135 4153 4213 4279 4213 4311 4243 4271 4191 4029 3010 1523 306 2232 2718 2922 3162 3299 3212
3783 3952 4068 4190 4341 4359 4363 4351 4304 4316 4274 4146 4196 3774 1228 325 2746 2633 2628 2809 3221 2564
4023 3890 4093 4250 4448 4497 4487 4446 4425 4358 4341 4339 4179 4138 2156 89 3016 3165 2803 2656 2797 3012

GFSNIL_con_sbcape_042.txt.gz
CAPE
551 651 443 179 1 7 481 588 744 1391 1368 1331 1185 1204 992 971 1358 812 663 631 35 8
835 712 739 351 200 0 315 1024 830 1340 1382 1316 1250 1292 1336 1172 1172 1444 723 485 828 97
769 1435 968 543 488 777 24 823 1081 1113 1739 1394 1288 1099 1215 1765 1369 1481 1276 894 480 607
687 604 1441 936 229 365 735 86 755 1171 1445 1728 1483 1226 1109 1348 1875 1372 1522 1459 994 630
1249 828 628 1462 828 397 536 773 101 1267 1341 1671 1679 1463 1406 1325 1745 1992 1626 1563 1323 1109
1538 1382 990 764 1581 1113 629 856 1032 1420 1449 1639 1640 1709 1729 1572 1575 1618 1825 1726 1460 1387
1648 1776 1598 1138 949 1760 1369 636 1198 1692 1803 1803 1785 1682 1739 1984 1913 1696 1613 1691 1680 1501
1601 1821 2015 1758 1361 1269 1619 1816 1015 1593 1837 2000 1952 2014 1905 1739 1829 2027 1904 1589 1906 1832
2017 1886 1949 2146 1965 1552 1431 1337 1974 1762 1984 1969 2266 2211 1836 2011 2049 1929 1910 1917 1750 1728
2117 2280 2193 2172 2219 2226 1964 1668 1287 1741 2091 2079 2247 2243 1308 1149 2055 2123 2089 2035 2006 2011
2392 2358 2397 2237 2198 2191 2310 2381 2144 1690 1809 2182 2143 2125 953 562 1853 2164 2150 2199 2191 2182
2347 2597 2463 2437 2292 2332 2376 2393 2570 2570 2363 2014 2140 1967 906 195 1514 2095 2395 2383 2304 2407
2324 2515 2624 2528 2546 2505 2522 2659 2625 2666 2805 2771 2661 2337 857 105 1953 2167 2308 2533 2606 2057
1811 2387 2553 2671 2653 2680 2762 2666 2709 2798 2806 2899 2836 2943 1034 41 2115 2582 2604 2597 2655 2670

GFSNIL_con_sbcape_045.txt.gz
CAPE
16 0 10 30 1 0 5 170 404 742 798 702 789 784 450 480 663 242 382 185 0 0
102 103 69 23 0 0 0 109 162 432 1048 1005 902 907 725 544 750 965 370 308 228 11
272 264 237 104 0 0 0 246 402 480 663 900 1080 919 919 773 701 929 962 493 209 330
425 411 404 378 156 204 0 101 609 577 856 970 983 878 867 1120 1172 934 1096 1087 799 420
572 680 826 627 243 144 455 0 233 690 798 1140 1174 992 938 915 1265 1417 1213 1263 1234 1123
544 455 674 1253 1052 286 147 276 127 376 825 986 1249 1254 1033 1028 995 1283 1560 1412 1337 1465
886 812 556 494 960 1202 599 371 419 465 723 985 1160 1328 1340 1291 1213 1170 1366 1614 1581 1564
1126 1143 1063 788 586 915 1288 985 698 741 1051 1124 1168 1315 1375 1482 1462 1336 1292 1304 1433 1561
1096 1315 1361 1277 1088 732 1058 1444 1043 823 929 1328 1508 1626 1307 1430 1527 1609 1607 1542 1412 1511
1322 1347 1541 1636 1564 1256 1027 1091 1511 1480 1115 1201 1363 1549 1075 863 1629 1548 1526 1594 1604 1637
1712 1617 1547 1717 1903 1817 1519 1344 1237 1235 1565 1628 1642 1580 507 486 1434 1872 1840 1760 1712 1716
1889 1934 1978 1878 1891 2000 2063 1951 1713 1550 1237 1227 1638 1373 867 86 1204 1709 1922 1959 1914 1970
1933 2085 2110 2222 2141 2089 2123 2174 2254 2272 2138 1670 1476 1526 422 27 1571 1785 1876 2026 2148 1830
1969 2167 2277 2216 2231 2197 2174 2235 2240 2262 2321 2369 2083 2091 583 3 1564 1973 2053 2130 2247 2325

GFSNIL_con_sbcape_048.txt.gz
CAPE
0 0 0 0 0 0 0 130 424 570 796 763 794 784 729 616 666 531 553 240 0 5
0 0 0 0 0 0 0 42 255 513 844 827 854 918 810 688 795 994 561 628 450 56
0 0 0 0 0 0 0 41 165 304 732 951 991 969 941 902 728 1017 1132 756 515 480
66 41 44 17 8 0 0 0 180 315 486 671 944 1089 1104 1193 1122 974 1125 1146 935 695
161 166 152 150 74 40 0 0 211 435 539 781 883 1011 1112 1255 1489 1336 1284 1306 1288 1393
253 300 301 300 273 196 233 12 61 398 614 758 1071 1170 1106 1228 1329 1582 1668 1610 1602 1686
383 414 479 519 523 260 251 394 238 245 548 762 960 1258 1343 1307 1315 1308 1510 1687 1724 1732
515 491 518 687 973 957 370 301 453 443 486 760 979 1144 1435 1526 1492 1481 1471 1533 1699 1816
670 636 565 459 470 923 1137 878 724 624 702 713 837 832 870 1277 1633 1659 1613 1590 1569 1671
797 932 918 850 679 568 710 1144 1144 993 923 1030 1194 907 423 451 1518 1674 1748 1771 1773 1729
949 1097 1169 1212 1185 1062 831 812 1227 1332 1122 975 1036 885 190 158 1210 1658 1773 1777 1850 1899
1208 1205 1307 1461 1521 1490 1376 1196 1075 1213 1500 1542 1361 702 172 0 1188 1622 1798 1952 1980 1955
1555 1522 1471 1489 1630 1781 1839 1735 1615 1578 1481 1300 1591 1388 147 4 1312 1543 1742 1969 2063 1553
1785 1809 1814 1788 1788 1859 1983 2098 2157 2135 2046 1948 1433 1512 448 0 1421 1869 1988 2002 2043 2193

GFSNIL_con_sbcape_051.txt.gz
CAPE
1541 777 750 1190 667 650 588 860 1497 1915 1973 2096 2188 2154 2288 2166 2146 1996 1706 1641 874 361
1382 1357 953 1403 1268 723 1169 522 1140 1654 1832 1971 2100 2222 2355 2164 2392 2359 2324 2102 2149 1495
1201 1331 1347 1374 1397 1386 915 812 728 1534 1738 1935 2022 2243 2448 2074 2382 2531 2260 2063 2271 2236
955 838 818 962 1147 1481 1093 1110 1319 1616 1732 1880 1999 2127 2374 2297 2240 2570 2585 2414 2408 2498
1227 1144 922 1278 1048 1384 1617 1178 1343 1585 1801 1824 1815 1941 2171 2100 1746 2352 2660 2673 2562 2432
1161 1067 1327 1413 1281 1465 1369 1387 1139 1281 1846 1880 1825 1884 1982 2051 2156 2239 2399 2734 2775 2673
1301 1337 1313 1579 1687 1313 1766 1685 1415 1502 1846 1845 1873 1920 2017 2095 2239 2372 2344 2611 2798 2818
1465 1533 1624 1760 1860 1745 1853 1860 1913 1686 1698 1662 1594 1449 1881 2081 2251 2418 2510 2547 2709 2726
1708 1748 1815 1917 2037 2122 1916 1880 2212 2004 1807 1683 1381 787 861 1642 2185 2537 2620 2625 2668 2748
1965 1944 1981 2063 2225 2349 2318 1986 2177 1857 1859 2136 2258 984 401 504 1910 2420 2667 2869 2738 2516
2135 2092 2142 2158 2215 2351 2201 2504 2314 2099 2301 2352 2322 1333 221 1 1386 2524 2941 2990 2843 3018
2154 2224 2304 2311 2302 2160 1958 1984 2247 2243 2354 2493 2550 1062 390 5 1705 2048 2845 2948 2897 3081
2124 2293 2457 2539 2643 2674 2358 2247 1798 1894 2485 2144 2732 1733 54 2 1582 2146 1964 2753 3054 1947
2425 2515 2649 2875 3017 2688 2599 2724 2538 2430 2746 2526 2311 2703 403 0 1655 1907 2098 2067 2066 2205

GFSNIL_con_sbcape_054.txt.gz
CAPE
2142 899 1091 1411 1015 879 701 730 1065 2180 2259 2417 2288 2268 2440 2225 1985 2255 1880 1959 1215 243
2399 2155 1349 2331 1429 1052 1678 671 887 1388 2090 2052 2212 2399 2406 2047 2478 2289 2424 2077 2070 1852
1631 1946 2137 1705 2217 1819 1186 1396 975 1274 1554 1533 1876 2297 2596 2059 2320 2647 2268 2056 2175 2317
1557 1543 1598 1609 1686 1860 1745 1598 1840 1443 1324 1332 2032 2236 2527 2323 1999 2719 2805 2462 2209 2790
1999 2136 1537 1806 1743 1891 2036 1852 2000 1879 1676 1481 1745 2244 2561 2438 1748 2229 2552 2765 2759 2655
1640 1693 2083 2065 1798 2264 2068 2110 1890 1964 2008 1816 1702 2145 2488 2555 2281 2099 2322 2538 2786 2777
1733 1943 1642 2490 2600 1989 2491 2303 2203 2187 2128 2028 1744 1668 2087 2251 2403 2313 2313 2545 2630 2950
2499 2357 2522 2832 2882 2522 2678 2403 2339 2330 2297 2155 1883 1349 1933 1982 2053 2359 2442 2445 2792 2918
3033 2958 3031 3195 3335 3357 2964 2859 2836 2331 2397 2309 1819 917 735 1230 1805 2088 2498 2634 2751 2879
3208 3248 3326 3356 3522 3447 3442 3020 3289 2516 2573 2997 2769 1191 400 380 1493 1767 2534 3272 2738 2525
3359 3374 3521 3561 3626 3740 3143 3331 3155 2852 3299 3341 3097 1609 571 28 1631 2355 2703 2928 2838 3460
3397 3423 3277 3350 3426 3186 3262 3093 3081 2910 3235 3278 3548 1353 750 98 1755 1845 2887 2899 3182 3438
3343 3499 3483 3479 3748 3763 3138 3210 2819 2876 3260 2690 3369 2436 267 200 1858 2354 1971 3056 3668 2210
3432 3705 3670 3983 3942 3829 3220 3314 3397 3102 3539 3832 3151 3320 523 0 2278 1917 1931 1815 1613 1806

GFSNIL_con_sbcape_057.txt.gz
CAPE
2646 954 852 1645 932 655 461 601 3613 2623 2217 2365 2424 2352 2895 2150 1989 3036 1948 1880 2350 587
2405 1889 694 1604 2556 1360 1697 817 1105 2124 2258 2118 2057 2666 2926 1816 3020 2518 2431 2641 2433 1714
2529 2625 2182 2366 3325 2303 2464 2622 1450 1960 1651 2122 2630 2736 3675 2594 2768 3134 2309 1651 3396 2939
2367 2248 2316 2995 3125 3334 2862 3267 3041 2668 2304 2271 2357 2785 3881 3639 2641 2746 3285 3005 2531 3519
2676 2249 2098 2314 2909 3319 3400 3029 3488 3141 2931 2432 2099 2970 3568 2624 2300 2691 2782 2926 3505 2553
2485 2495 2250 2850 2700 3127 3476 3721 2432 3266 3532 3039 2417 3145 3457 3639 3268 2975 3032 2988 3319 3228
2591 2622 2515 2976 3141 3237 3531 3722 3615 3693 3655 3370 2961 2772 2733 3208 3399 3353 2821 3163 3288 3382
2670 2840 3074 2873 3348 3317 3566 3654 3841 3954 3817 3673 2856 2078 2842 3170 3324 3636 3308 3274 3432 3307
2927 3115 3084 3043 3317 3600 3703 3842 3976 3885 3911 3801 2191 1417 1105 1968 2736 3338 3583 3691 3682 3738
3099 3214 3232 3276 3531 3730 3837 3964 4176 4061 3980 4029 3906 1525 573 431 2212 2916 3302 3632 3798 3280
3532 3438 3563 3711 3764 3952 3985 4002 4124 4168 4208 4201 3964 2347 539 11 2153 2289 2855 3517 3678 3987
3494 3839 3903 3903 3970 4098 4127 4138 4095 4170 4312 4379 4263 1954 950 18 2021 2166 2922 3123 3202 3577
3732 4025 4052 4123 4240 4279 4208 4179 3612 3926 4310 3995 4506 3188 369 214 2253 2449 2153 3218 3586 2497
4036 4173 4293 4450 4439 4451 4387 3724 4296 4167 4267 4393 4051 4298 1171 0 2811 2145 2237 2125 1926 2239

GFSNIL_con_sbcape_060.txt.gz
CAPE
2278 1354 1443 2613 1520 2539 1552 1653 2639 3180 2848 3231 3261 3084 2920 3150 3083 2981 3158 3188 3105 2403
1767 1812 1033 2262 2547 2026 2391 2276 2731 2970 3421 3150 3328 3116 3164 2597 2764 2640 3181 3070 3469 3102
828 1663 1646 1114 2621 1882 2604 2317 2983 3218 3005 3182 3518 3661 3541 2905 3118 3051 2578 2911 3004 3198
1572 1194 1126 1603 940 2342 2002 3990 3306 3733 3274 3062 3062 3650 3645 3077 3174 3116 3141 3463 3570 3235
1996 1443 1339 797 1924 2188 2620 2608 3728 3292 3877 2998 3074 3135 3235 3240 2037 3053 3151 3465 3228 3516
2127 2049 1669 1244 1024 2160 2296 3151 2567 3370 3047 3292 2801 2820 2963 3249 2963 2864 3336 3277 3414 3237
2068 2018 1855 2006 1147 2235 2461 2269 2679 2769 3190 3068 2793 2480 2555 3251 3180 3006 2795 3297 2949 3414
2264 2075 2108 1857 1966 1281 2039 2489 2755 2854 3078 3133 2974 2460 2315 2561 3062 3181 3052 2903 3206 3151
2275 2242 2317 1987 2223 2267 2157 2438 2815 2966 3054 3209 2930 2164 1509 2007 2335 3209 3096 3020 2966 3480
2384 2457 2291 2524 2126 2735 2436 2731 2795 2941 3109 3215 3222 2038 901 949 2127 2382 2856 3081 3004 3043
2277 2391 2554 2496 2715 2457 2852 2717 2958 3006 3074 3204 3247 2775 953 80 1514 2166 2551 2654 2885 3159
2248 2564 2558 2653 2583 2704 2742 2945 2952 3081 3206 3214 3237 2614 1852 16 921 1625 1980 2080 2596 3255
2724 2625 2773 2722 2769 2829 2910 2938 3050 3044 3185 3230 3415 2896 951 98 1767 1631 1847 2207 2449 1984
3444 2813 3201 3127 3108 3190 3234 3200 3356 3338 3358 3632 3494 3649 1254 0 2115 2052 2140 1954 2136 2369

GFSNIL_con_sbcape_063.txt.gz
CAPE
1262 237 570 1033 923 1133 1290 1220 1348 1537 1512 1580 1887 1369 1531 1292 1700 1336 1903 1241 1728 1236
940 484 313 517 944 834 796 1016 1363 2014 1534 1567 1757 1647 1527 1372 1849 1683 1747 1588 1512 1765
355 956 327 289 750 986 376 1227 1347 2097 1585 1937 1751 1445 1597 1104 1513 1493 1144 1065 1765 1349
58 573 660 455 145 910 671 1360 1984 1883 2132 2062 1850 2015 1900 1290 1715 1444 1270 1374 1650 1597
324 87 621 442 492 124 803 870 1844 2041 2031 1881 1804 2101 2046 1802 1563 1729 1768 1670 1795 2028
909 221 198 227 351 128 1048 556 1900 1784 1869 1824 1760 1702 1991 2079 1829 1607 1839 1883 2169 1834
1047 985 214 174 22 689 515 1862 1080 2035 1662 1976 1509 1638 1801 1898 2068 1975 1768 2230 2032 2094
1271 1080 1015 478 360 0 969 751 1744 1380 2134 1812 1983 1708 1529 1788 2138 2125 1999 1769 1984 2072
1402 1335 1237 1091 894 349 165 1303 829 1384 1613 2111 2096 2026 1653 1415 1922 2237 2166 2127 2035 2174
1435 1461 1351 1270 1101 1119 354 718 1523 1344 1510 1741 2082 2027 1460 1023 1325 1416 2205 2181 2112 2118
1502 1455 1510 1396 1293 1121 1146 633 733 1365 1732 1883 1951 2175 891 580 951 1300 1435 2153 2145 2109
1411 1609 1662 1396 1474 1190 1451 1414 1152 1499 1719 1978 2072 1982 1347 1 299 999 1357 1533 1665 2040
1433 1591 1656 1698 1414 1639 1250 1398 1742 1515 1856 1993 2071 2019 1098 23 852 475 880 1191 1345 1788
1656 1502 1738 1722 1800 1599 1762 1668 1646 1930 1866 2041 2017 2240 1402 7 1619 1465 949 965 1121 1273

GFSNIL_con_sbcape_066.txt.gz
CAPE
142 76 263 479 614 849 1164 1150 1187 960 977 1113 730 944 789 745 955 908 1114 1058 985 786
510 480 114 496 448 718 758 791 1004 1070 968 1047 1226 727 926 920 962 1259 940 1282 705 1074
109 517 79 205 397 754 617 765 819 1505 1094 959 1112 1038 816 743 882 1193 846 884 984 812
5 133 517 49 91 314 413 561 783 1411 1220 1084 1156 888 1107 683 614 1075 977 628 630 1096
0 34 312 427 87 26 382 522 1071 1314 1484 1294 1281 1220 1175 1042 997 1134 1071 889 907 1321
93 0 64 361 329 82 54 330 1414 1398 1613 1567 1467 1379 1388 1364 1068 967 1201 1243 1079 1166
593 175 0 46 261 221 39 64 822 1463 1443 1361 1473 1438 1510 1466 1356 1158 1042 1220 1250 1420
687 719 280 0 15 45 167 276 243 988 1409 1455 1360 1275 1154 1310 1362 1369 1287 1257 1370 1555
633 828 800 452 0 0 0 178 477 856 1123 1240 1520 1330 1131 1203 1368 1396 1348 1302 1256 1267
1215 1001 893 855 495 189 88 0 280 553 1095 1329 1386 1360 830 697 1047 1405 1484 1463 1460 1440
1467 1365 1255 1004 912 634 465 82 0 549 493 1009 1313 1646 656 329 857 872 1150 1578 1723 1655
1580 1480 1404 1303 1144 1034 920 682 154 353 1035 817 766 850 813 47 813 1048 916 911 1101 1526
954 1390 1462 1416 1330 1223 1101 1066 867 506 447 1134 1343 1213 315 1 1109 1182 1052 864 949 924
962 1209 1445 1430 1426 1359 1285 1138 1154 1058 839 741 888 1203 293 0 1175 1357 1048 831 786 864

GFSNIL_con_sbcape_069.txt.gz
CAPE
0 48 96 182 65 414 638 990 885 750 627 697 386 481 416 566 808 763 597 717 787 446
6 0 21 214 102 360 512 889 793 944 721 800 730 598 612 635 599 776 615 847 628 529
168 164 0 0 395 270 418 493 701 1030 785 816 879 777 540 688 664 793 778 795 935 557
35 93 181 0 17 311 409 393 537 977 1051 914 860 904 778 538 537 789 876 478 488 552
0 0 161 132 0 0 94 159 487 570 1145 1018 908 826 819 866 869 557 731 862 476 573
0 0 20 94 105 0 0 11 229 609 972 1015 970 950 818 840 848 779 825 978 845 712
87 0 0 4 10 101 0 0 65 810 957 1144 1072 1045 1066 1075 1035 932 872 881 978 1088
257 112 0 0 0 0 10 7 0 237 1016 1000 1142 1194 1117 1181 1189 1172 1075 919 926 1044
269 326 124 0 0 0 0 0 0 0 205 838 1158 1160 1154 1216 1294 1234 1122 1082 923 994
329 407 505 239 0 0 0 0 0 6 84 275 683 1127 832 371 1028 997 1006 983 975 911
575 412 512 629 392 35 0 0 0 0 0 161 351 626 516 133 630 957 969 995 1021 993
822 931 712 708 709 598 238 6 0 0 0 0 63 337 129 0 470 782 825 832 924 1114
187 1203 1234 1107 914 806 642 499 295 128 0 0 103 94 0 0 730 858 973 1017 836 675
130 429 555 1260 1262 1151 995 882 754 646 345 61 154 473 0 0 765 864 869 930 888 857

GFSNIL_con_sbcape_075.txt.gz
CAPE
1188 987 998 1394 1148 1383 1364 1534 1955 2330 2175 2202 1989 1807 1850 1804 1764 1966 1855 2097 2570 1814
1198 1139 1085 1197 1385 1202 1531 1285 1884 2004 2276 2182 2197 2126 2041 1652 2325 2459 2237 2176 2189 2086
717 863 1119 1268 1434 1405 1517 1746 1635 2067 2193 2310 2321 2252 2245 1879 1942 2190 2085 1897 2322 2322
771 658 859 973 1252 1623 1808 1980 2034 2121 2128 2261 2334 2412 2477 2355 2104 2237 2338 2202 2305 2313
810 756 663 808 922 1176 1651 1819 2073 2195 2270 2295 2328 2403 2446 2350 1953 2195 2026 2054 2266 2136
410 726 793 901 901 988 1151 1563 1573 1919 2180 2326 2351 2409 2450 2519 2428 2393 2251 1982 2112 2141
261 262 658 1216 1253 1024 1070 1329 1410 1658 1878 2099 2397 2464 2435 2422 2517 2539 2387 2291 2167 2152
809 477 325 876 1336 1106 1098 1070 1172 1341 1473 1708 1750 1751 2190 2360 2491 2538 2444 2348 2334 2225
965 1067 1066 1175 1274 1270 1090 1079 1124 1026 1372 1408 1161 674 744 1568 2187 2383 2422 2498 2496 2426
1092 1067 1230 980 1022 1119 1268 1146 1169 1027 1024 1482 1708 819 213 402 1499 2041 2381 2521 2544 2393
854 901 1082 1116 1062 1215 912 1086 1043 984 1178 1311 1256 578 56 2 1304 2112 2315 2414 2356 2566
697 1157 1049 1124 1196 1184 977 845 799 841 984 1226 1383 234 1 0 936 1132 2172 2382 2290 2570
89 313 1225 1282 1370 1359 1378 1118 960 839 860 552 1087 551 0 0 378 994 861 1582 2053 1231
18 20 44 1022 1748 1531 1693 1658 1578 1492 1392 1253 964 810 0 0 402 625 951 1012 1007 940

GFSNIL_con_sbcape_078.txt.gz
CAPE
2096 1615 1417 1327 946 1042 1199 1402 1759 2554 1722 1779 1841 2069 2458 1528 1243 1688 1083 1461 1968 1291
2082 1934 1190 1108 1290 1211 1442 1195 1830 2240 2174 1800 1797 1882 2253 1692 1840 1829 1888 1763 1622 1634
1732 1879 1767 1488 1431 1470 1158 1755 1469 2358 2363 2088 2264 2386 2516 1789 1881 2074 1842 1652 1793 2199
1486 1580 1719 1508 1445 1732 1529 1694 2188 2522 2414 2312 2223 2325 2855 2488 1912 2312 2042 2129 2180 2439
1961 1473 1321 1505 1386 1584 1777 1760 2231 2562 2653 1884 2067 2343 2809 2522 1827 2084 2018 2106 2298 2277
1144 1337 1306 1329 1496 1512 1685 1714 1594 2152 2679 2509 1997 2479 2704 2806 2611 2252 2158 2030 2336 2164
1118 1191 1215 1325 1497 1560 1689 1751 1607 1741 2129 2439 2242 2221 2629 2851 2927 2509 2219 2556 2584 2461
1304 1221 1175 1010 1344 1569 1744 1783 1792 1622 1735 2020 2099 2058 2685 2802 2754 2773 2827 2645 2881 2699
1323 1428 1536 1371 913 1540 1710 1871 1904 1837 1567 1464 1071 711 949 1445 2482 2715 2907 2846 2710 2816
1228 1556 1589 1630 1713 1629 1616 1827 2012 1881 1821 2002 1833 472 215 378 1364 1664 2304 2591 2520 2251
792 1255 1785 1875 1919 1810 1760 1743 1767 1803 2166 2026 2089 942 265 7 1189 1661 2223 2546 2458 2841
4 73 901 1664 1784 2092 2052 1948 1756 1710 1868 2180 2253 989 184 0 1089 995 1962 2210 2732 2994
14 8 5 389 1382 1805 2011 1708 1780 1731 1766 1478 1930 1439 239 0 917 1007 1029 1922 2599 1567
5 17 12 9 126 1172 2150 2633 2414 1956 2210 2285 1782 1747 275 0 974 1031 1136 1147 1217 1270

GFSNIL_con_sbcape_081.txt.gz
CAPE
2440 1669 1207 1711 2200 1834 1422 1742 2919 2168 1867 1844 1838 1949 2127 1889 1853 2674 1602 1550 2920 2040
2868 2540 1779 2257 1900 1184 2643 1511 2082 1670 1821 1837 1855 1927 2274 1984 2596 2144 2167 1899 1958 1939
2166 2476 2364 1627 1875 1598 1760 1589 1103 1745 2546 2161 1806 2000 2355 2732 2529 2007 1841 1212 3239 2852
2189 2041 2262 1964 1718 1872 1688 1796 1742 2147 2618 2254 2650 2240 3207 3078 2483 2330 2047 2319 2243 2285
2438 2478 1883 2131 1901 1888 2362 1946 1998 2352 2327 2396 2046 2608 2670 2377 1788 1873 2204 1939 2273 1936
1896 1831 2014 2259 1996 2636 2377 2404 1529 2258 2867 2510 1963 2856 2882 2663 2767 2341 2316 2324 2301 2098
1778 1744 1844 2396 2830 2067 2947 2629 2335 2432 2895 2575 2064 1984 2318 2848 2843 2781 2564 2492 2804 2620
1773 1640 1765 1918 2267 2403 2868 2848 2890 2917 2651 2752 2091 1864 2635 2661 2846 2905 3282 2849 2900 3232
1836 1882 2080 1989 1944 1997 2245 3283 3553 3048 2995 2673 1409 676 898 1782 2980 3398 3857 3229 3231 3296
130 984 1610 2234 2571 2341 1971 2571 3442 3320 3139 3267 3167 1240 90 631 1627 2505 3342 3593 3625 2948
2 59 442 1092 1913 2304 2547 2657 2824 3144 3482 3594 3176 1765 784 0 1761 2092 2556 2849 3509 3805
0 4 9 145 213 1603 2422 2272 2185 2262 2947 3007 3496 2013 766 42 1419 1303 1971 2422 2671 2706
2 1 4 4 22 265 1518 2017 2735 2017 2555 2035 2923 2400 1693 15 1476 1850 1597 2353 2528 1488
3 2 0 2 17 31 55 678 1729 2186 2603 3022 2549 2720 1418 246 1937 1719 1672 1753 1683 1889

GFSNIL_con_sbcape_084.txt.gz
CAPE
2962 2264 2110 2573 2954 902 734 1101 2077 2499 2815 3099 2666 2463 2836 3343 2915 3007 2795 2646 3000 2856
3107 3001 1650 2401 3142 2348 1880 838 2097 860 2608 2883 2890 2624 2726 2345 2982 2907 2842 3014 2984 3147
2998 3028 3092 3443 3352 3329 2717 1086 626 791 872 2971 2962 2755 2927 2486 2308 2705 3022 2479 2892 3095
2635 2834 3110 2956 3291 2995 2890 1591 679 0 221 2626 3131 2811 2951 2352 2162 2200 2434 2693 2629 2765
2933 2561 2725 2857 2902 3271 3134 3149 2991 2354 2580 2872 2698 2540 2676 2751 2150 2319 2662 2685 2178 2398
2555 2675 2674 2872 2792 3187 3171 3016 2662 2650 3165 3040 3108 3194 2956 2740 2864 2754 2285 2693 2660 2828
2612 2584 2394 3188 3210 2957 3297 3139 3026 3019 3246 2852 3025 2993 2873 3121 3021 3377 2587 3001 2990 3222
789 2231 2825 2865 2631 3169 3130 3096 3255 3189 2911 3226 2963 2259 2598 2870 2985 2676 2513 2868 2903 3123
567 758 1618 2326 2454 2651 2998 3259 3275 3035 3130 2817 1993 1298 1013 1670 2215 3059 2986 2534 3019 3229
17 136 195 612 1925 2310 2393 2374 2893 2991 3129 2970 3019 1946 1011 0 1957 2862 3012 2971 2950 2935
0 3 25 232 188 319 1003 2252 2247 2422 2818 2888 2949 2475 1953 1130 558 1488 2057 2218 2712 2897
0 0 0 3 1 13 121 319 1459 2127 2287 2485 2773 2225 1511 469 956 1454 1460 1477 1969 2129
5 6 0 0 3 35 80 166 493 1069 2012 2009 2159 2230 1852 654 1771 1935 1871 1788 1709 1049
11 0 12 8 6 0 31 182 268 711 1554 2011 2011 2349 1804 898 1182 2173 2066 1913 1786 1792

GFSNIL_con_sbcape_087.txt.gz
CAPE
1219 998 715 851 476 1036 31 276 439 989 1216 1621 1122 1248 1424 1447 1568 1408 1516 1056 1019 1240
1275 1233 1016 856 576 404 353 952 1282 731 1319 1380 1481 1084 1566 1361 1586 1545 1352 1256 1413 1269
1699 1642 1595 1895 1705 1268 691 554 595 676 631 1266 1571 1480 1346 1075 1242 1316 1425 1717 1226 1418
2070 1975 1970 1799 2008 1297 673 462 411 247 46 572 1364 1505 1465 1340 1123 1549 1265 1023 1471 1034
1880 2061 2205 2193 1955 1678 534 610 266 0 0 17 870 1658 1431 1374 1500 1289 1167 1178 1553 1250
2010 2004 2042 2086 2020 1943 1742 1060 966 570 513 1121 1378 1424 1562 1391 1461 1622 1110 1215 1401 1569
227 523 1634 2142 2143 2180 2086 1948 1630 1733 1436 1748 1753 1888 2015 1712 1293 1339 1827 1473 1885 1605
259 328 853 1259 1955 1864 2014 2106 2033 1908 1945 2230 1833 1756 1880 1977 1842 1797 1721 1747 1685 2030
88 141 126 441 965 1307 1292 1411 1855 2103 2083 1929 1929 2063 1871 1621 1398 1995 1565 1404 1630 1945
1 15 72 128 96 123 261 1256 1320 1329 1481 1782 2000 1759 1318 107 370 1219 1682 1908 1818 1640
0 0 0 3 5 63 68 157 756 1178 1360 1476 1596 1759 1621 694 1 281 612 1170 1811 1886
0 0 0 0 0 2 8 40 110 278 711 1051 1371 1494 1322 331 194 484 665 742 937 1275
0 0 0 0 0 0 0 8 193 197 289 761 1076 1249 1010 320 280 996 1184 1216 962 829
0 0 0 0 0 0 0 0 0 50 58 313 666 51 1 1 0 533 927 1219 1265 1215

GFSNIL_con_sbcape_090.txt.gz
CAPE
626 520 429 443 252 634 419 230 413 1068 1080 905 846 699 1033 912 1022 920 1042 841 800 414
789 624 546 580 178 722 358 52 365 488 981 1162 1085 613 1028 952 1179 1177 976 820 717 801
722 842 669 477 782 483 277 375 858 723 920 993 1098 924 878 999 716 1059 965 1128 1256 840
1107 1072 969 1117 1148 838 410 397 425 390 623 613 1045 1203 985 774 788 966 1018 842 985 974
1044 1216 1199 1143 1274 1153 599 282 167 174 79 67 473 947 1087 1004 1252 916 875 979 762 1124
582 783 1232 1507 1622 1360 700 369 336 118 0 0 16 552 1232 1060 900 1034 1108 853 721 1021
178 250 436 912 1257 1031 1210 704 556 507 331 406 720 904 965 1243 849 867 1008 1198 1116 1191
140 148 314 745 920 1430 1079 1128 1154 1115 1235 1170 1204 1212 1209 1424 1515 1199 991 1223 1401 1350
35 81 96 83 100 244 511 903 1087 1302 1175 1105 1479 1870 1420 1167 1270 1457 1395 1257 1096 1062
16 9 9 10 35 67 76 165 478 649 903 1176 1225 1310 1092 590 148 488 777 1154 1200 1135
1 1 1 3 0 23 10 42 90 221 305 487 944 1182 909 643 83 113 179 525 1045 1299
1 0 0 0 5 4 0 0 17 117 114 226 439 468 76 1 201 283 450 403 429 566
0 0 0 0 0 0 0 0 1 0 53 52 458 1 1 1 26 308 530 782 796 583
0 0 0 0 0 0 0 0 0 0 1 4 0 0 0 0 0 0 2 3 169 242

GFSNIL_con_sbcape_093.txt.gz
CAPE
357 77 38 241 299 400 348 443 446 740 908 585 541 339 0 659 804 721 883 774 555 284
416 300 278 241 242 226 468 249 139 400 855 564 665 566 675 771 831 1034 843 631 513 561
432 487 321 260 423 241 361 242 99 401 465 770 961 924 471 811 686 575 696 724 928 633
405 495 580 471 476 647 376 240 350 603 539 631 726 809 715 603 659 667 743 593 687 683
498 626 678 527 710 898 841 204 297 286 268 331 367 634 927 921 898 807 732 610 598 604
350 512 687 806 886 922 1028 406 188 131 119 49 26 136 623 927 707 727 750 818 784 547
37 82 208 327 610 680 902 697 336 223 97 2 0 11 226 680 813 672 688 736 834 801
74 73 64 32 61 316 612 836 609 354 440 395 494 690 804 806 974 980 771 680 673 869
16 4 6 3 8 4 41 142 346 609 668 714 1125 1519 1309 923 902 1001 1045 1077 964 758
3 0 0 0 0 2 1 15 45 152 322 530 490 883 695 456 419 576 601 738 808 845
4 2 0 0 0 0 0 0 8 54 54 97 249 43 36 1 5 199 177 182 356 594
0 0 4 0 1 0 0 0 0 12 30 84 98 1 1 62 133 235 260 230 267 317
0 0 0 0 0 0 0 0 0 0 34 5 0 0 0 0 0 0 0 0 8 1
0 0 0 0 0 0 0 0 0 18 8 0 0 0 0 0 0 0 0 0 0 0

GFSNIL_con_sbcape_096.txt.gz
CAPE
84 85 97 125 298 376 362 460 480 717 842 615 502 166 32 484 912 890 1070 1002 885 791
212 114 82 161 199 292 330 379 315 480 897 662 530 650 707 890 954 1207 1046 847 755 880
262 246 198 153 255 162 140 340 292 153 341 700 760 811 542 842 827 869 775 906 1068 984
197 276 296 246 334 468 400 262 131 215 369 538 710 879 905 672 744 834 885 850 944 1080
138 280 370 302 362 572 759 337 87 268 467 550 383 672 904 901 970 541 846 884 802 696
175 293 302 445 585 619 717 566 224 177 183 106 130 310 556 711 880 807 822 508 886 750
59 1 58 157 216 306 561 765 360 228 251 177 138 51 32 399 918 923 910 747 814 884
34 3 3 2 1 19 101 311 504 472 350 261 125 142 331 516 799 1069 1147 1086 1005 1001
17 3 0 9 1 0 0 0 1 238 382 451 594 845 554 590 1083 1227 1309 1562 1469 1277
0 2 0 0 0 0 0 0 0 16 22 62 176 1 1 0 288 908 951 973 1012 967
4 4 3 0 0 0 0 0 0 0 6 84 18 1 1 1 72 270 150 224 297 389
0 0 0 2 4 0 0 0 0 0 44 0 1 0 0 2 63 36 18 59 16 13
0 0 0 0 0 0 0 0 0 5 4 0 3 0 0 0 0 0 0 0 0 1
0 0 0 0 0 0 0 0 0 0 0 0 0 0 0 0 0 0 0 0 0 0

GFSNIL_con_sbcape_099.txt.gz
CAPE
1681 1201 1518 1644 1304 1364 1542 1382 1804 1879 2040 1937 1899 1618 1532 1591 1963 2119 1929 2264 2260 1698
1188 1270 1293 1373 1417 1316 1575 1464 1533 1723 1688 2019 1888 1910 1831 1227 1987 2292 2349 2087 2128 2152
1171 1277 1354 1409 1507 1470 1403 1492 1583 1503 1563 1851 1971 1986 1986 1880 2122 2172 2043 1693 2311 2418
958 1374 1479 1390 1350 1622 1556 1621 1628 1528 1236 1260 1422 1772 2359 2279 1779 2074 2101 1940 2177 2273
1076 1276 1414 1489 1501 1531 1433 1687 1645 1539 1713 1781 1674 1865 2103 2056 1908 2057 1902 1706 1899 1949
912 976 1073 1313 1439 1498 1418 1782 1711 1550 1662 1783 1408 1219 1529 1806 1777 1978 1908 1842 1905 1700
757 1106 1121 1302 1233 1484 1603 1622 1822 1637 1586 1567 1198 1049 1045 1144 1588 1904 1626 1557 1872 1861
196 186 542 694 740 708 1169 1339 1612 1631 1511 1488 1289 859 1000 1135 1133 1247 1970 2058 1839 1851
40 142 258 301 291 294 366 616 723 796 891 823 969 0 1 211 1783 2083 2224 2195 2229 2105
9 4 9 77 126 135 181 207 256 325 460 250 4 0 1 1 1452 1976 2113 1968 1805 1674
5 3 1 18 37 41 57 47 117 334 8 0 0 0 0 5 933 1147 797 370 245 178
3 3 3 3 1 0 2 1 218 3 2 0 0 0 0 0 0 3 4 1 0 0
0 0 0 2 0 3 5 31 9 2 0 0 0 0 0 0 0 0 1 0 0 0
0 0 0 0 0 0 0 0 0 0 0 0 0 0 0 0 0 0 0 0 0 0

GFSNIL_con_sbcape_102.txt.gz
CAPE
1175 661 545 791 1371 884 1445 1128 1790 1366 1510 1641 1470 1939 2140 1971 1608 1686 1466 1916 2334 1513
929 934 1043 1013 1248 1239 1165 1682 1772 1786 1545 1707 1641 1933 2027 1508 2010 2211 2226 1644 1842 1817
966 952 644 903 761 1164 1784 1843 2003 2047 1893 1519 1548 1465 1792 1484 1661 2143 1652 1521 1789 2040
928 742 1048 947 793 1097 956 1592 1799 2228 2115 1847 1679 1782 2204 2024 1577 1884 1538 1693 1866 2089
520 819 673 1037 853 1190 1079 1472 1404 1674 2286 1790 1291 1585 2038 1725 1211 1652 1328 1278 1415 1678
543 532 788 920 1019 1252 1052 1158 1264 1601 1555 1179 1666 1612 1611 1577 1639 1485 1354 1163 1261 1282
740 742 792 1035 1352 1257 1665 1013 1035 1248 1691 1414 1231 1506 1725 1595 1619 1525 1291 1506 1300 1401
970 1042 1236 1223 1438 1500 1588 1228 1940 1413 1768 1819 1557 1084 1879 1916 1804 1870 1669 1687 1594 1495
143 373 764 1017 1206 1313 1528 1762 1808 1834 1794 1588 1243 0 1 140 1837 2015 1718 1666 1811 1552
124 154 175 284 618 836 1043 1134 1144 1185 1135 273 59 0 0 0 1544 1950 1535 1674 1840 1591
101 32 10 26 104 252 304 510 725 392 144 0 0 0 0 135 1448 814 423 427 169 73
5 3 3 2 24 69 278 322 426 103 3 0 0 0 0 170 291 194 27 0 0 0
0 34 88 64 4 2 162 26 0 0 0 0 0 0 0 0 54 2 0 0 0 0
0 6 4 4 9 7 0 0 0 0 0 0 0 0 0 0 0 0 0 0 0 0

GFSNIL_con_sbcape_105.txt.gz
CAPE
1327 970 707 1020 1994 1630 1179 1225 2077 1673 1498 1493 1883 1857 2183 1919 1397 2713 1726 1976 3551 2236
1296 1160 1412 426 1618 1777 1314 2120 1981 1380 1495 1533 1532 1784 2062 1784 2094 2298 2166 2427 1905 2026
1088 1058 1063 1213 1216 454 1054 1233 2076 1596 1716 1811 1824 1914 2029 2296 2317 1920 1846 1050 2054 2057
661 586 781 599 708 974 948 1148 1403 1665 1708 1590 1898 1903 1978 2823 1968 1989 1772 1707 1667 1455
955 689 523 649 647 1079 1234 1390 1430 1794 1654 1367 1691 1785 1978 2284 1278 1416 1507 1465 1545 1533
991 827 715 572 664 911 1291 1312 1439 1415 1415 1559 1680 1399 1769 2020 1516 1578 1217 1134 1372 1453
1441 900 941 1971 778 910 1405 1375 1219 1663 1884 1652 1554 1629 1432 1588 1760 1738 1437 1475 1862 1849
1885 1530 1413 1386 1611 946 1018 1141 1210 1217 2236 1377 1338 714 1282 1519 1721 1963 1789 1421 1479 1585
1104 1189 1479 1413 1396 1416 1283 1257 1308 1337 1527 1463 1282 0 0 0 1815 1717 2067 2073 1564 1237
350 240 386 587 1095 1161 1186 1269 1431 1262 1300 1120 310 0 0 0 1130 1703 1993 1861 1854 2011
144 161 227 177 124 234 548 927 942 824 277 95 0 0 0 0 1442 1823 1576 1544 1273 1105
296 166 21 11 54 97 247 433 272 165 88 0 0 0 0 0 1174 582 373 84 27 39
76 1 1 0 0 0 3 2 16 0 0 0 0 0 0 0 328 427 97 0 0 0
0 0 5 5 29 6 1 0 0 0 0 0 0 0 0 0 0 0 23 13 0 0

GFSNIL_con_sbcape_108.txt.gz
CAPE
1847 2052 1349 845 662 0 164 348 1904 2817 2810 2937 2882 3080 2853 3093 2763 2972 3094 3646 3243 3195
2523 1712 2618 1314 582 107 322 470 977 2140 2764 2758 2330 2942 2711 2885 2468 1806 922 2733 3482 3005
1980 2112 2458 953 269 32 40 351 40 271 2536 2645 2199 2202 2931 2159 1748 2141 2372 2362 2520 2966
1522 1729 1894 1957 1421 0 225 718 13 1524 2394 2266 2147 2091 2576 2507 2614 2030 2749 2702 2220 2282
1604 1346 1451 1929 1563 2329 2368 2868 2261 2490 2630 2679 2523 2580 2703 2296 1986 1517 1932 2451 2630 2519
1744 1773 1570 1133 1496 2395 2766 2474 2160 2462 2280 2129 2057 1864 2663 2698 2793 2109 1814 2423 2323 2286
2054 1541 1741 1205 1658 2299 2717 2363 2508 2037 1485 2168 2348 2027 2309 2722 1986 2199 1944 1994 1814 867
758 1283 1801 1541 2254 1695 2024 1594 1713 1910 2025 1726 494 0 10 1696 1967 1862 1973 2706 2136 2294
816 773 625 783 1226 1603 1916 1754 1786 1643 1843 1378 0 0 0 0 1738 1780 1934 2025 1959 1357
1067 725 455 593 888 796 1067 1363 1497 1709 1538 82 0 0 0 0 168 1373 2316 2479 2575 1498
326 187 102 134 432 525 278 341 478 188 108 16 0 0 0 0 26 1608 1794 886 1042 204
276 74 93 51 72 73 106 110 1 0 0 0 0 0 0 0 1634 669 0 0 0 0
355 159 25 1 0 16 51 2 0 0 0 0 0 0 0 0 382 321 0 0 0 0
97 43 1 2 97 8 0 0 0 0 0 0 0 0 0 0 0 0 0 0 0 0

GFSNIL_con_sbcape_111.txt.gz
CAPE
644 437 208 234 259 0 0 57 231 346 1082 1012 1336 1236 1571 1169 1680 1080 1084 1095 1332 1797
576 300 315 288 134 6 0 2 225 365 750 1093 1341 1155 1297 1385 1060 1078 456 1057 1188 1497
831 627 182 91 34 0 0 0 153 372 284 1023 863 647 1158 961 563 1087 930 1222 890 1043
1024 757 173 338 119 0 0 11 55 105 180 1033 678 1024 1109 1009 796 1103 987 1161 1121 976
809 810 787 591 122 0 0 40 119 10 888 898 883 1040 657 844 1449 918 823 831 923 977
766 874 555 581 572 289 233 630 878 971 826 951 1173 942 1075 1258 954 917 1069 888 983 799
770 723 724 487 355 1000 857 763 645 1027 819 771 692 82 515 1116 1099 915 1020 1311 985 556
577 657 754 942 466 1080 1139 882 747 765 752 0 0 0 0 0 602 764 687 710 639 630
317 367 374 397 306 409 311 329 435 511 191 0 0 1 1 0 7 663 797 805 523 0
356 343 330 241 308 323 223 199 144 67 0 0 0 0 0 0 0 290 562 382 232 0
424 179 74 58 85 219 158 133 44 1 0 0 0 0 0 0 0 0 0 0 0 0
134 40 26 0 0 55 16 0 0 0 0 0 0 0 0 0 0 0 0 0 0 0
151 50 0 0 0 1 0 0 0 0 0 0 0 0 0 0 9 0 0 0 0 0
32 17 7 1 0 0 0 0 0 0 0 0 0 0 0 0 0 0 0 0 0 0

GFSNIL_con_sbcape_114.txt.gz
CAPE
260 106 62 17 58 12 0 72 119 418 702 647 899 615 1118 675 1126 626 579 599 921 222
279 210 146 84 16 0 0 0 22 361 451 559 692 788 893 822 892 805 281 939 808 668
200 213 95 56 94 0 0 0 0 185 372 323 725 677 677 734 385 763 615 852 429 583
231 186 79 8 0 0 0 0 0 54 42 200 601 538 794 660 485 731 659 675 702 579
249 184 0 0 38 51 0 0 0 15 56 104 541 612 508 516 1304 702 501 407 505 564
347 169 75 8 70 0 0 0 13 89 5 251 635 364 348 475 464 740 775 689 527 498
295 336 267 209 210 0 0 0 137 346 334 284 67 1 10 154 679 591 536 708 634 553
298 312 339 235 185 271 210 288 376 343 0 0 0 0 0 0 83 539 348 395 436 138
171 232 331 309 353 309 142 131 71 75 0 0 0 0 0 0 0 185 312 249 0 0
108 124 127 218 219 284 131 49 20 0 0 0 0 0 0 0 0 92 233 174 0 0
146 126 47 65 165 238 104 85 8 0 0 0 0 0 0 0 0 0 0 0 0 0
113 31 7 11 41 34 4 1 1 0 0 0 0 0 0 0 0 0 0 0 0 0
30 12 4 9 15 1 0 0 0 0 0 0 0 0 0 0 0 0 0 0 0 0
16 0 0 0 1 0 0 0 0 0 0 0 0 0 0 0 0 0 0 0 0 0

GFSNIL_con_sbcape_117.txt.gz
CAPE
46 18 8 8 4 8 33 59 77 242 440 577 641 323 676 559 858 516 491 528 664 0
120 102 54 17 0 3 3 0 0 296 383 503 468 595 592 519 688 577 172 529 504 286
135 145 86 54 10 0 0 0 0 170 264 307 346 602 489 522 355 424 250 495 319 468
129 122 39 0 0 6 0 0 0 0 127 115 419 443 327 455 387 312 479 424 249 256
150 144 58 0 0 0 0 0 0 0 23 0 266 217 303 437 686 567 391 310 347 340
174 179 97 0 0 0 0 0 0 15 4 1 163 385 312 276 302 408 431 431 422 357
229 174 162 44 0 0 0 0 0 0 50 101 190 67 81 201 416 375 357 397 459 497
310 215 203 132 117 107 22 0 0 87 35 0 0 0 0 2 130 192 238 292 221 94
280 234 214 225 208 224 97 95 26 69 0 0 0 0 1 0 0 25 238 250 0 0
160 154 198 203 259 172 99 24 0 0 0 0 0 0 0 0 0 3 76 80 0 0
94 95 117 136 162 119 90 70 0 0 0 0 0 0 0 0 0 0 0 0 0 0
70 46 28 35 39 29 74 67 1 1 0 0 0 0 0 0 0 0 0 0 0 0
47 11 4 2 6 1 1 1 0 1 0 0 0 0 0 0 0 0 0 0 0 0
2 5 3 1 2 2 0 0 0 0 0 0 0 0 0 0 0 0 0 0 0 0

GFSNIL_con_sbcape_120.txt.gz
CAPE
54 77 75 58 64 88 92 72 161 282 549 663 696 534 675 629 731 631 720 607 753 201
43 46 39 3 4 26 26 16 71 138 459 534 630 709 565 566 581 623 463 378 586 664
103 91 80 32 22 0 0 10 37 102 331 360 489 626 605 675 604 513 345 535 566 667
66 87 92 82 58 0 0 0 0 14 70 149 266 611 679 667 600 437 585 532 599 427
0 84 93 2 1 0 0 0 0 0 0 63 90 476 379 635 957 566 511 440 482 612
114 115 119 23 0 0 0 0 0 0 0 44 54 300 191 290 523 577 697 539 537 518
205 207 179 83 28 0 0 0 0 0 30 0 25 280 263 281 523 641 688 605 661 769
256 263 233 177 95 61 0 0 0 0 51 56 11 0 0 8 183 161 261 415 473 248
210 249 274 221 173 148 151 14 0 122 67 0 0 0 1 1 5 104 236 388 179 0
196 176 144 179 168 188 160 52 105 4 0 0 0 0 0 0 0 3 92 196 24 0
52 114 55 87 131 126 130 15 5 0 0 0 0 0 0 0 0 1 1 35 0 0
37 10 36 36 33 43 86 66 20 0 1 0 0 0 0 0 0 0 0 0 0 0
55 40 39 1 0 1 1 1 1 1 0 1 0 0 0 0 0 0 0 0 0 0
50 29 4 1 1 1 1 0 1 0 1 0 0 0 0 1 0 0 0 0 0 0

GFSNIL_con_sbcape_123.txt.gz
CAPE
1338 1110 1139 1342 1149 1100 1135 1215 1514 1562 1718 1687 1907 2001 2240 1933 1793 1712 1795 2049 2023 1236
1201 1213 1030 1220 1141 878 1013 948 1002 1169 1384 1693 1720 1857 1906 1515 1928 1945 1970 1626 1788 1815
1000 1154 1153 1149 1051 959 870 779 835 887 1079 1381 1657 1798 1986 2131 1911 2060 1794 1377 1925 2238
875 965 982 984 1054 1156 900 610 514 780 855 1223 1374 1540 1827 2088 1915 1986 1827 1689 1899 1928
699 804 784 940 942 1072 1038 808 760 380 447 542 997 1273 1564 1611 1311 1705 1649 1583 1768 1817
535 638 653 811 892 878 851 714 409 129 225 310 297 912 1430 1738 1496 1248 1522 1650 1624 1502
586 571 618 737 910 887 805 704 399 266 107 255 701 693 1002 1423 1374 1468 1440 1541 1482 1476
1001 811 829 980 1062 1044 978 771 732 371 219 524 990 658 860 1049 1257 1499 1432 1206 1355 1426
1112 1030 1126 1228 1340 1365 1276 1267 1003 720 559 585 471 0 1 0 472 705 982 521 791 1163
802 779 418 588 1381 1010 1453 1495 1268 1003 900 623 104 0 0 0 6 317 577 950 1243 1093
564 428 267 191 200 132 997 525 1246 819 293 29 0 0 0 0 0 34 235 218 692 755
105 77 93 110 118 102 231 181 33 119 211 49 1 1 0 1 4 0 0 1 0 1
59 101 90 79 50 8 119 86 16 3 4 0 2 0 0 1 0 0 0 0 0 0
209 253 179 17 3 2 1 1 1 2 1 0 0 0 0 0 1 0 0 0 0 0